Vacaville, CA

10:50 PM PDT on May 24, 2017 (GMT -0700)
Nut Tree

Weather History for KVCB - October, 2011

Change the Weather History Date:

Sunday, October 2, 2011

  Actual Average Record
Temperature  
Mean Temperature 64 °F -  
Max Temperature 78 °F 84 °F 102 °F (1952)
Min Temperature 52 °F 51 °F 36 °F (1950)
Growing Degree Days 14 (Base 50)    
Moisture  
Dew Point 49 °F    
Average Humidity 60    
Maximum Humidity 89    
Minimum Humidity 34    
Precipitation  
Precipitation 0.00 in - - ()
Sea Level Pressure  
Sea Level Pressure 30.01 in    
Wind  
Wind Speed 5 mph (SW)    
Max Wind Speed 12 mph    
Max Gust Speed 17 mph    
Visibility 10 miles    
Events      
Averages and records for this station are not official NWS values.
T = Trace of Precipitation, MM = Missing Value Source: NWS Daily Summary

Daily Weather History Graph

Daily Weather History Graph

Search for Another Location

Airport or City:

Trip Planner

Search our weather history database for the weather conditions in past years. The results will help you decide how hot, cold, wet, or windy it might be!

Date:

Astronomy

Oct. 02, 2011 Rise Set
Actual Time 7:04 AM PDT 6:49 PM PDT
Civil Twilight 6:37 AM PDT 7:15 PM PDT
Nautical Twilight 6:07 AM PDT 7:46 PM PDT
Astronomical Twilight 5:36 AM PDT 8:17 PM PDT
Moon 1:11 PM PDT (10/2) 10:58 PM PDT (10/2)
Length of Visible Light 12h 37m
Length of Day
11h 45m
Waxing Crescent, 36% of the Moon is Illuminated
Oct 2
Waxing Crescent
Oct 3
First Quarter
Oct 11
Full
Oct 19
Last Quarter
Oct 26
New

Hourly Weather History & Observations

Time (PDT) Temp. Dew Point Humidity Pressure Visibility Wind Dir Wind Speed Gust Speed Precip Events Conditions
12:53 AM 61.0 °F 55.0 °F 81% 30.01 in 10.0 mi SSW 6.9 mph - N/A   Clear
3:53 AM 57.0 °F 52.0 °F 83% 30.01 in 10.0 mi WSW 5.8 mph - N/A   Clear
5:53 AM 53.1 °F 50.0 °F 89% 30.01 in 10.0 mi Calm Calm - N/A   Clear
6:53 AM 52.0 °F 48.9 °F 89% 30.03 in 10.0 mi Calm Calm - N/A   Clear
8:53 AM 64.0 °F 52.0 °F 65% 30.06 in 10.0 mi Calm Calm - N/A   Clear
9:53 AM 66.9 °F 51.1 °F 57% 30.07 in 10.0 mi Calm Calm - N/A   Clear
10:53 AM 69.1 °F 51.1 °F 53% 30.07 in 10.0 mi Calm Calm - N/A   Clear
11:53 AM 73.0 °F 51.1 °F 46% 30.06 in 10.0 mi Variable 5.8 mph - N/A   Clear
12:53 PM 75.0 °F 50.0 °F 41% 30.04 in 10.0 mi Variable 3.5 mph - N/A   Clear
1:53 PM 77.0 °F 48.0 °F 36% 30.01 in 10.0 mi SSW 11.5 mph 17.3 mph N/A   Clear
2:53 PM 75.0 °F 45.0 °F 34% 30.00 in 10.0 mi SSW 10.4 mph - N/A   Clear
3:53 PM 73.9 °F 50.0 °F 43% 29.99 in 10.0 mi SW 11.5 mph 17.3 mph N/A   Clear
4:53 PM 73.0 °F 51.1 °F 46% 29.98 in 10.0 mi West 9.2 mph - N/A   Clear
6:53 PM 66.9 °F 48.0 °F 51% 29.96 in 10.0 mi WSW 10.4 mph - N/A   Clear
7:53 PM 64.9 °F 46.9 °F 52% 29.97 in 10.0 mi South 4.6 mph - N/A   Clear
8:53 PM 61.0 °F 46.9 °F 60% 29.97 in 10.0 mi SSE 4.6 mph - N/A   Clear
9:53 PM 55.9 °F 45.0 °F 67% 29.97 in 10.0 mi WNW 3.5 mph - N/A   Clear
10:53 PM 55.0 °F 45.0 °F 69% 29.97 in 10.0 mi WSW 3.5 mph - N/A   Clear
11:53 PM 55.0 °F 45.0 °F 69% 29.97 in 10.0 mi SSW 4.6 mph - N/A   Clear